Flag for U.S.A. Weather past 2 weeks in Bismarck, North Dakota, U.S.A.

Now
80 °F

Sunny.


Feels Like: 81 °F
Forecast: 61 / 83 °F
Wind: 6 mph from East

Location: Bismarck Municipal Airport

Current Time: Jul 22, 2014 at 7:32:11 PM

Latest Report: Jul 22, 2014 at 6:52 PM


Visibility: 10 mi

Pressure: 30.17 "Hg

Humidity: 49%

Dew point: 59 °F

Location of BismarckLocation

Historic Weather in Bismarck — Graph

°F

Bismarck temperature yesterday

Maximum temperature yesterday: 88 °F (at 12:52 PM)
Minimum temperature yesterday: 65 °F (at 11:52 PM)
Average temperature yesterday: 74 °F

Past Weeks' High & Low Weather Summary

 TemperatureHumidityPressure
High94 °F (Jul 20, 4:52 PM)100% (Jul 19, 6:52 AM)30.29 "Hg (Jul 19, 6:52 AM)
Low47 °F (Jul 15, 1:52 AM)28% (Jul 13, 2:52 PM)29.62 "Hg (Jul 20, 5:52 AM)
Average69 °F65%29.95 "Hg
* Reported Jul 7 11:52 AM — Jul 22 11:52 AM, Bismarck, Weather by CustomWeather, © 2014

Note: Actual official high and low records may vary slightly from our data, if they occured in-between our weather recording intervals... More about our weather records

Advertising

Bismarck weather history for previous 24 hours

 ConditionsComfort  
Time TempWeatherWind HumidityBarometerVisibility
11:52 AM
Jul 22
72 °FSunny.5 mph71%30.19 "Hg10 mi
10:52 AM70 °FPassing clouds.6 mph76%30.19 "Hg10 mi
9:52 AM68 °FPartly sunny.6 mph82%30.18 "Hg10 mi
8:52 AM69 °FScattered clouds.6 mph81%30.16 "Hg10 mi
8:02 AM69 °FLow clouds.No wind84%30.16 "Hg10 mi
7:03 AM66 °FOvercast.5 mph87%30.14 "Hg8 mi
6:52 AM65 °FLow clouds.No wind94%30.12 "Hg7 mi
5:52 AM64 °FLow clouds.No wind94%30.08 "Hg8 mi
4:52 AM63 °FLow clouds.5 mph97%30.05 "Hg9 mi
3:58 AM62 °FPassing clouds.5 mph93%30.07 "Hg10 mi
2:52 AM62 °FClear.7 mph96%30.02 "Hg10 mi
1:52 AM64 °FClear.6 mph94%29.97 "Hg10 mi
12:52 AM64 °FClear.8 mph94%29.96 "Hg10 mi
11:52 PM
Jul 21
65 °FClear.8 mph94%29.93 "Hg10 mi
10:52 PM66 °FClear.10 mph87%29.91 "Hg10 mi
9:52 PM67 °FSunny.6 mph87%29.86 "Hg10 mi
8:52 PM67 °FSunny.15 mph87%29.84 "Hg10 mi
7:52 PM67 °FLight rain. Passing clouds.7 mph87%29.78 "Hg10 mi
Weather by CustomWeather, © 2014

See weather overviewHow to use our weather pages